Weather History for Bishop, CA

Change the Weather History Date:

Monday, October 14, 2013

  Actual Average Record
Temperature  
Mean Temperature 50 °F 58 °F  
Max Temperature 68 °F 77 °F 91 °F (1950)
Min Temperature 31 °F 38 °F 22 °F (1966)
Degree Days  
Heating Degree Days 15 8  
Month to date heating degree days 148 79  
Since 1 July heating degree days 204 122  
Cooling Degree Days 0 0  
Month to date cooling degree days 0 7  
Year to date cooling degree days 1337 1103  
Moisture  
Dew Point 24 °F    
Average Humidity 44    
Maximum Humidity 72    
Minimum Humidity 15    
Precipitation  
Precipitation 0.00 in 0.01 in 0.62 in (1945)
Month to date precipitation 0.13 0.12  
Year to date precipitation 1.24 3.68  
Snow  
Snow 0.00 in 0.00 in - ()
Month to date snowfall 0.0 0.0  
Since 1 July snowfall 0.0 0.0  
Since 1 September snowfall 0.0 0.0  
Snow Depth 0.00 in    
Sea Level Pressure  
Sea Level Pressure 30.12 in    
Wind  
Wind Speed 5 mph (NW)    
Max Wind Speed 12 mph    
Max Gust Speed 15 mph    
Visibility 10 miles    
Events      
T = Trace of Precipitation, MM = Missing Value Source: NWS Daily Summary

Daily Weather History Graph

Daily Weather History Graph

Search for Another Location

Airport:

Trip Planner

Search our weather history database for the weather conditions in past years. The results will help you decide how hot, cold, wet, or windy it might be!

Date:

Astronomy

Oct. 14, 2013 Rise Set
Actual Time 7:00 AM PDT 6:17 PM PDT
Civil Twilight 6:34 AM PDT 6:43 PM PDT
Nautical Twilight 6:04 AM PDT 7:13 PM PDT
Astronomical Twilight 5:34 AM PDT 7:43 PM PDT
Moon 3:45 PM PDT (10/14) 2:28 AM PDT (10/14)
Length of Visible Light 12h 08m
Length of Day
11h 16m
Waxing Gibbous, 80% of the Moon is Illuminated
Oct 14
Waxing Gibbous
Oct 18
Full
Oct 26
Last Quarter
Nov 3
New
Nov 9
First Quarter

Hourly Weather History & Observations

Time (PDT) Temp. Windchill Dew Point Humidity Pressure Visibility Wind Dir Wind Speed Gust Speed Precip Events Conditions
12:56 AM 48.0 °F - 28.9 °F 48% 30.11 in 10.0 mi NNW 9.2 mph - N/A   Clear
1:56 AM 45.0 °F 39.3 °F 28.9 °F 53% 30.11 in 10.0 mi NNW 11.5 mph - N/A   Clear
2:56 AM 42.1 °F 37.7 °F 28.0 °F 58% 30.12 in 10.0 mi NW 6.9 mph - N/A   Clear
3:56 AM 39.9 °F 35.1 °F 28.0 °F 63% 30.13 in 10.0 mi NW 6.9 mph - N/A   Clear
4:56 AM 37.0 °F 31.6 °F 27.0 °F 67% 30.15 in 10.0 mi West 6.9 mph - N/A   Clear
5:56 AM 33.1 °F - 25.0 °F 72% 30.19 in 10.0 mi Calm Calm - N/A   Clear
6:56 AM 32.0 °F 27.5 °F 25.0 °F 75% 30.21 in 10.0 mi NW 4.6 mph - N/A   Clear
7:56 AM 37.9 °F 33.5 °F 27.0 °F 65% 30.22 in 10.0 mi NW 5.8 mph - N/A   Clear
8:56 AM 48.0 °F - 28.9 °F 48% 30.21 in 10.0 mi North 4.6 mph - N/A   Clear
9:56 AM 54.0 °F - 28.0 °F 37% 30.19 in 10.0 mi WNW 4.6 mph - N/A   Clear
10:56 AM 57.0 °F - 28.0 °F 33% 30.17 in 10.0 mi WNW 3.5 mph - N/A   Clear
11:56 AM 60.1 °F - 25.0 °F 26% 30.16 in 10.0 mi North 6.9 mph - N/A   Clear
12:56 PM 62.1 °F - 21.0 °F 21% 30.12 in 10.0 mi Variable 4.6 mph - N/A   Clear
1:56 PM 63.0 °F - 19.0 °F 18% 30.08 in 10.0 mi NW 3.5 mph - N/A   Clear
2:56 PM 66.0 °F - 17.1 °F 15% 30.06 in 10.0 mi Calm Calm - N/A   Clear
3:56 PM 66.0 °F - 17.1 °F 15% 30.04 in 10.0 mi Variable 3.5 mph - N/A   Clear
4:56 PM 66.0 °F - 17.1 °F 15% 30.03 in 10.0 mi Calm Calm - N/A   Clear
5:56 PM 63.0 °F - 18.0 °F 18% 30.05 in 10.0 mi SSE 4.6 mph - N/A   Clear
6:56 PM 55.9 °F - 19.9 °F 25% 30.07 in 10.0 mi SW 4.6 mph - N/A   Clear
7:56 PM 54.0 °F - 21.9 °F 29% 30.08 in 10.0 mi ESE 3.5 mph - N/A   Clear
8:56 PM 44.1 °F 39.5 °F 21.0 °F 40% 30.11 in 10.0 mi North 8.1 mph - N/A   Clear
9:56 PM 46.9 °F - 23.0 °F 39% 30.10 in 10.0 mi North 6.9 mph - N/A   Clear
10:56 PM 48.0 °F - 25.0 °F 41% 30.11 in 10.0 mi NNW 10.4 mph - N/A   Clear
11:56 PM 46.9 °F - 26.1 °F 44% 30.10 in 10.0 mi WNW 6.9 mph - N/A   Clear